QPS-SAR-11

导读 | 豆包AI

QPS-SAR-11 YAMATSUMI是一颗由日本研发的合成孔径雷达卫星,于2025年6月11日成功发射,它属于QPS-SAR星座的组成部分,该卫星依托合成孔径雷达技术,可不受光照、天气条件影响,全天时全天候获取地球观测数据,能在灾害监测、资源勘探、地理测绘等领域提供高分辨率对地观测服务,助力日本商业航天遥感应用拓展,也为全球地理信息获取提供新的数据源支撑。

Basic Information
目录编号:
64340
目录名称:
QPS-SAR-11 YAMATSUMI
国际标识:
2025-125A
轨道中心:
EARTH
卫星名称:
QPS-SAR-11 YAMATSUMI
卫星全名:
QPS-SAR-11
卫星状态:
在轨 (已飞行310 天)
发射日期:
2025-06-11 UTC
国别 :
日本 (JP)
星等 :
--
Orbit Information
数据来源 国际轨道数据 AOE轨道数据
星历时间 2026-04-16T18:53:31+0800
13小时前
查看轨道信息
2026-04-12T09:00:00+0800
4天前
查看轨道信息
半长轴 6941.732km 6941.811km
偏心率 0.000843 0.0008495
轨道倾角 42.007° 42.008°
近地点辐角 88.460° 55.602°
升交点赤经 172.011° 196.319°
平近点角 271.720° 193.278°
近地点 557.743km 557.776km
远地点 569.447km 569.572km
周期 95.932分钟 95.933分钟
每日圈数 15.010703 15.010447
Detailed Information
使用方式:
暂无
2D Orbit Map
3D Orbit Map
Orbit Altitude Analysis Chart
Orbit Inclination Analysis Chart
Orbit Comprehensive Analysis Chart
View Comprehensive Chart